Date String (YYYY-MM-DD hh:mm:ss) UTC,Instrument flags,Ambient pressure (hPa),Sample flow (lpm),Bypass flow (lpm),Sample temperature (°C),Ambient temperature (°C),ASC tube jacket temperature (°C),LED temperature (°C),Box temperature (°C),Sample RH (%),Span deviation,Mass concentration (μg/m³),Mass concentration (μg/m³),Mass concentration (μg/m³)
DateTimeUTC,F1_M11,P_M11,Q1_M11,Q2_M11,T1_M11,T2_M11,T3_M11,T4_M11,T5_M11,U1_M11,ZSPAN_M11,X0_M11,X2_M11,X1_M11
2021-09-30 19:00:00,,0834.4,5.01,0.00,27.6,26.9,00.0,36.6,29.5,21.8,-002.0,0015.29,0008.89,0008.35
2021-09-30 19:01:00,,0834.4,4.99,0.00,27.7,26.9,00.0,36.7,29.5,21.9,-002.0,0014.78,0008.86,0008.30
2021-09-30 19:02:00,,0834.4,5.00,0.00,27.7,26.9,00.0,36.7,29.6,22.0,-002.1,0014.62,0008.84,0008.27
2021-09-30 19:03:00,,0834.4,5.00,0.00,27.7,27.0,00.0,36.7,29.6,22.0,-002.0,0013.93,0008.79,0008.21
2021-09-30 19:04:00,,0834.4,5.02,0.00,27.7,27.0,00.0,36.7,29.6,22.1,-001.6,0013.89,0008.76,0008.17
2021-09-30 19:05:00,,0834.3,5.00,0.00,27.7,27.0,00.0,36.7,29.6,22.0,-001.3,0013.84,0008.76,0008.15
2021-09-30 19:06:00,,0834.3,4.99,0.00,27.7,27.0,00.0,36.7,29.6,21.8,-001.3,0013.73,0008.76,0008.14
2021-09-30 19:07:00,,0834.4,5.01,0.00,27.7,27.0,00.0,36.7,29.6,21.8,-001.2,0013.70,0008.75,0008.13
2021-09-30 19:08:00,,0834.4,5.00,0.00,27.7,27.0,00.0,36.7,29.5,21.8,-001.2,0013.79,0008.76,0008.10
2021-09-30 19:09:00,,0834.4,4.98,0.00,27.7,27.0,00.0,36.7,29.5,21.7,-001.0,0013.26,0008.74,0008.09
2021-09-30 19:10:00,,0834.4,5.01,0.00,27.7,26.9,00.0,36.7,29.5,21.8,-000.9,0013.08,0008.78,0008.10
2021-09-30 19:11:00,,0834.4,4.99,0.00,27.7,26.9,00.0,36.7,29.5,21.8,-000.4,0013.33,0008.79,0008.11
2021-09-30 19:12:00,,0834.4,5.00,0.00,27.7,26.9,00.0,36.7,29.5,21.9,-000.4,0013.23,0008.74,0008.10
2021-09-30 19:13:00,,0834.3,5.00,0.00,27.7,26.9,00.0,36.7,29.5,21.7,-000.4,0013.03,0008.73,0008.12
2021-09-30 19:14:00,,0834.3,5.00,0.00,27.7,26.9,00.0,36.7,29.5,22.0,-000.4,0013.08,0008.78,0008.16
2021-09-30 19:15:00,,0834.3,4.99,0.00,27.6,26.9,00.0,36.7,29.5,22.0,-000.6,0013.09,0008.79,0008.17
2021-09-30 19:16:00,,0834.3,5.00,0.00,27.7,26.9,00.0,36.7,29.5,22.0,-000.7,0013.16,0008.76,0008.16
2021-09-30 19:17:00,,0834.3,5.01,0.00,27.6,26.9,00.0,36.7,29.5,22.0,-000.7,0013.16,0008.75,0008.15
2021-09-30 19:18:00,,0834.3,5.00,0.00,27.6,26.9,00.0,36.7,29.5,22.0,-000.6,0013.28,0008.76,0008.16
2021-09-30 19:19:00,,0834.3,5.01,0.00,27.7,26.9,00.0,36.7,29.5,21.8,-000.6,0013.32,0008.71,0008.14
2021-09-30 19:20:00,,0834.3,5.01,0.00,27.7,26.9,00.0,36.7,29.5,21.8,-000.8,0013.10,0008.65,0008.10
2021-09-30 19:21:00,,0834.3,5.00,0.00,27.7,26.9,00.0,36.7,29.5,22.0,-000.6,0013.08,0008.62,0008.05
2021-09-30 19:22:00,,0834.3,5.00,0.00,27.7,26.9,00.0,36.7,29.5,22.2,-000.9,0013.62,0008.56,0007.99
2021-09-30 19:23:00,,0834.3,5.01,0.00,27.7,27.0,00.0,36.7,29.5,22.3,-000.8,0013.76,0008.59,0007.99
2021-09-30 19:24:00,,0834.3,5.01,0.00,27.7,27.0,00.0,36.7,29.6,22.1,-001.0,0013.88,0008.59,0007.98
2021-09-30 19:25:00,,0834.2,5.01,0.00,27.7,27.0,00.0,36.7,29.6,22.1,-000.9,0014.04,0008.58,0007.98
2021-09-30 19:26:00,,0834.2,5.00,0.00,27.7,27.0,00.0,36.7,29.6,22.3,-000.9,0014.21,0008.63,0008.00
2021-09-30 19:27:00,,0834.2,5.00,0.00,27.7,27.0,00.0,36.7,29.6,22.0,-000.9,0014.31,0008.72,0008.03
2021-09-30 19:28:00,,0834.2,5.00,0.00,27.7,27.0,00.0,36.7,29.5,21.9,-000.8,0014.50,0008.77,0008.07
2021-09-30 19:29:00,,0834.1,5.00,0.00,27.7,27.0,00.0,36.7,29.5,22.1,-000.8,0014.48,0008.78,0008.07
2021-09-30 19:30:00,,0834.1,4.99,0.00,27.7,27.0,00.0,36.7,29.5,22.2,-000.9,0014.59,0008.84,0008.09
2021-09-30 19:31:00,,0834.1,5.00,0.00,27.7,26.9,00.0,36.7,29.5,22.0,-001.0,0015.17,0008.88,0008.13
2021-09-30 19:32:00,,0834.1,5.01,0.00,27.7,26.9,00.0,36.7,29.5,22.3,-001.0,0015.26,0008.90,0008.18
2021-09-30 19:33:00,,0834.1,5.01,0.00,27.6,26.9,00.0,36.7,29.5,22.5,-001.0,0014.64,0008.95,0008.21
2021-09-30 19:34:00,,0834.1,5.00,0.00,27.6,26.9,00.0,36.7,29.5,22.7,-001.3,0014.52,0008.97,0008.25
2021-09-30 19:35:00,,0834.1,5.00,0.00,27.6,26.9,00.0,36.7,29.5,22.4,-001.3,0014.66,0008.98,0008.27
2021-09-30 19:36:00,,0834.1,5.00,0.00,27.6,26.9,00.0,36.7,29.5,22.2,-001.3,0014.44,0008.98,0008.26
2021-09-30 19:37:00,,0834.1,5.00,0.00,27.6,26.9,00.0,36.7,29.5,22.3,-001.2,0014.41,0008.95,0008.27
2021-09-30 19:38:00,,0834.1,5.00,0.00,27.6,26.9,00.0,36.7,29.5,22.2,-001.3,0014.63,0008.91,0008.28
2021-09-30 19:39:00,,0834.1,4.98,0.00,27.6,26.9,00.0,36.7,29.5,22.1,-001.6,0014.65,0008.88,0008.26
2021-09-30 19:40:00,,0834.1,5.01,0.00,27.6,26.9,00.0,36.7,29.5,22.5,-001.3,0015.64,0008.91,0008.27
2021-09-30 19:41:00,,0834.1,5.01,0.00,27.7,26.9,00.0,36.7,29.5,22.3,-001.2,0015.66,0008.89,0008.28
2021-09-30 19:42:00,,0834.1,4.98,0.00,27.7,26.9,00.0,36.7,29.5,22.3,-001.2,0015.12,0008.89,0008.28
2021-09-30 19:43:00,,0834.1,5.00,0.00,27.7,26.9,00.0,36.7,29.5,22.3,-001.3,0015.33,0008.92,0008.28
2021-09-30 19:44:00,,0834.1,5.01,0.00,27.7,26.9,00.0,36.7,29.5,21.9,-001.5,0015.28,0008.96,0008.32
2021-09-30 19:45:00,,0834.1,4.99,0.00,27.7,26.9,00.0,36.7,29.5,22.0,-001.4,0015.48,0008.97,0008.32
2021-09-30 19:46:00,,0834.1,5.00,0.00,27.7,26.9,00.0,36.7,29.5,21.9,-001.6,0015.55,0009.01,0008.33
2021-09-30 19:47:00,,0834.0,5.00,0.00,27.7,26.9,00.0,36.7,29.5,21.9,-001.6,0015.77,0009.02,0008.34
2021-09-30 19:48:00,,0834.0,4.99,0.00,27.7,26.9,00.0,36.7,29.5,22.0,-001.7,0015.65,0009.03,0008.35
2021-09-30 19:49:00,,0834.1,5.00,0.00,27.6,26.9,00.0,36.7,29.5,21.9,-001.7,0015.61,0009.08,0008.36
2021-09-30 19:50:00,,0834.1,5.00,0.00,27.6,26.9,00.0,36.7,29.5,22.1,-001.5,0015.61,0009.10,0008.38
2021-09-30 19:51:00,,0834.1,4.99,0.00,27.6,26.9,00.0,36.7,29.5,22.1,-001.7,0014.71,0009.14,0008.39
2021-09-30 19:52:00,,0834.1,5.00,0.00,27.7,26.9,00.0,36.7,29.5,22.3,-002.0,0015.24,0009.18,0008.41
2021-09-30 19:53:00,,0834.1,5.01,0.00,27.7,26.9,00.0,36.7,29.5,22.2,-001.8,0015.42,0009.23,0008.44
2021-09-30 19:54:00,,0834.1,4.99,0.00,27.7,26.9,00.0,36.7,29.5,22.2,-001.8,0015.06,0009.21,0008.44
2021-09-30 19:55:00,,0834.1,5.01,0.00,27.6,26.9,00.0,36.7,29.5,22.1,-001.2,0014.82,0009.17,0008.44
2021-09-30 19:56:00,,0834.1,5.00,0.00,27.6,26.9,00.0,36.7,29.4,22.3,-001.1,0014.83,0009.20,0008.44
2021-09-30 19:57:00,,0834.0,5.00,0.00,27.6,26.9,00.0,36.7,29.4,22.6,-000.9,0014.92,0009.24,0008.44
2021-09-30 19:58:00,,0834.1,5.00,0.00,27.6,26.9,00.0,36.7,29.4,22.6,-001.0,0014.94,0009.31,0008.46
2021-09-30 19:59:00,,0834.0,5.01,0.00,27.6,26.9,00.0,36.7,29.4,22.9,-001.2,0015.05,0009.33,0008.46
